Regional Weather Roundup
Issued by NWS

Home | Current Version | Previous Version | Text Only | Print | Product List | Glossary Off
Versions: 1 2 3 4 5 6 7 8 9 10 11 12 13 14 15 16 17 18 19 20 21 22 23 24 25 26 27 28 29 30 31 32 33 34 35 36 37 38 39 40 41 42 43 44 45 46 47 48 49 50

000
ASUS43 KLOT 281609
RWRIL

ILLINOIS REGIONAL WEATHER ROUNDUP
NATIONAL WEATHER SERVICE CHICAGO/ROMEOVILLE IL
1100 AM CDT SUN MAY 28 2017

NOTE: "FAIR" INDICATES FEW OR NO CLOUDS BELOW 12,000 FEET WITH NO
SIGNIFICANT WEATHER AND/OR OBSTRUCTIONS TO VISIBILITY.

* THESE STATIONS ARE NOT UNDER NWS QUALITY CONTROL. THEY ALSO MAY NOT
  REPORT WEATHER SUCH AS PRECIPITATION OR FOG.

ILZ001-002-007-009-015-016-024-281700-
NORTHWEST ILLINOIS

CITY           SKY/WX    TMP DP  RH WIND       PRES   REMARKS
MOLINE         SUNNY     73  54  51 N10       29.80R
STERLING*      PTSUNNY   69  61  75 N12       29.79S
SAVANNA*       MOSUNNY   67  58  75 NW7       29.79S
$$

ILZ003-004-008-010-011-017-018-281700-
NORTH CENTRAL ILLINOIS

CITY           SKY/WX    TMP DP  RH WIND       PRES   REMARKS
ROCKFORD       CLOUDY    65  59  81 N8        29.78S
FREEPORT*      CLOUDY    64  58  80 N6        29.81R
ROCHELLE*      CLOUDY    63  60  91 N10       29.78S
DE KALB*       CLOUDY    64  60  88 N6        29.77S
PERU*          CLOUDY    66  59  77 NW14      29.78R
$$

ILZ005-006-012>014-019>023-281700-
NORTHEAST ILLINOIS

CITY           SKY/WX    TMP DP  RH WIND       PRES   REMARKS
CHICAGO-OHARE  PTSUNNY   72  60  66 N14       29.74R
CHICAGO-MIDWAY PTSUNNY   74  63  68 W10       29.73S
AURORA         CLOUDY    70  61  73 N7        29.75F
LANSING*       CLOUDY    74  65  74 NW9       29.74R
JOLIET*        PTSUNNY   73  64  73 NW5       29.75R
WAUKEGAN       CLOUDY    67  59  75 NE5       29.74F
DUPAGE AIRPORT PTSUNNY   70  62  76 N10       29.74F HAZE
KANKAKEE*      CLOUDY    76  63  63 CALM      29.74S
WHEELING       MOSUNNY   70  60  70 N10       29.75F
MORRIS*        PTSUNNY   72  63  72 N7G28     29.74R
ROMEOVILLE*    PTSUNNY   72  65  78 NW14      29.75R
NORTHERLY ISL    N/A     64  56  75 MISG        N/A
$$

LMZ740>746-281700-
SOUTHERN LAKE MICHIGAN

STATION/POSITION SKY/WX   TEMP    WIND        PRES    VSBY  WAVE
                          AIR SEA DIR/SP/G                  HT/PER
                          (F)     (DEG/KT/KT) (MB)    (MI)  (FT/S)
SOUTHERN BUOY              52 50  360/  8/  8 1008.0S         0
WILMETTE HARBOR            54 55                N/A           1
HARRISON CRIB              56     360/ 13/ 14   N/A
BURNHAM HARBOR             59      10/  8/ 10   N/A
CALUMET HARBOR             65     360/  4/  5 1006.5R
BURNS HARBOR               57     340/  8/ 11 1007.5S
MICHIGAN CITY              59     320/ 16/ 18   N/A
MICHIGAN CITY 6N           56 56  340/  8/ 10   N/A           1
ST. JOSEPH                 60 60  340/  8/  8 1007.1          0
$$

ILZ025>027-034>036-040-047-049-050-058-095>099-281700-
WEST-CENTRAL ILLINOIS

CITY           SKY/WX    TMP DP  RH WIND       PRES   REMARKS
QUINCY         PTSUNNY   70  57  63 NW10      29.84R
GALESBURG*     CLOUDY    71  57  61 NW10G18   29.80S
MACOMB*        MOSUNNY   71  58  62 NW14G21   29.84R
JACKSONVILLE*  CLOUDY    70  61  73 NW13      29.82R
PITTSFIELD*    PTSUNNY   71  60  67 NW9       29.86R
$$

ILZ028>032-037-038-041>044-048-051>054-059>061-281700-
CENTRAL ILLINOIS

CITY           SKY/WX    TMP DP  RH WIND       PRES   REMARKS
PONTIAC        PTSUNNY   73  67  83 NW15      29.76R
BLOOMINGTON    CLOUDY    72  63  73 NW14      29.78R
DECATUR        CLOUDY    70  64  81 W9        29.77R
PEORIA         MOSUNNY   71  60  68 N10       29.78S
LACON*         MOSUNNY   69  60  72 NW12      29.77R
LINCOLN*       CLOUDY    73  66  78 NW7       29.78R
SPRINGFIELD    CLOUDY    73  65  75 NW13      29.80R
TAYLORVILLE    CLOUDY    69  64  84 W12       29.80R
$$

ILZ033-039-045-046-055>057-062-063-281700-
EAST-CENTRAL ILLINOIS

CITY           SKY/WX    TMP DP  RH WIND       PRES   REMARKS
CHAMPAIGN      PTSUNNY   73  64  73 W10       29.76S
RANTOUL*       CLOUDY    75  69  81 W8        29.74F
MATTOON        CLOUDY    68  63  84 W12       29.78R
PARIS*         CLOUDY    70  65  83 SW13G20   29.78R
$$

ILZ079-100>102-281700-
SOUTHWEST ILLINOIS

CITY           SKY/WX    TMP DP  RH WIND       PRES   REMARKS
ALTON          CLOUDY    64  63  94 W12       29.84R
BELLEVILLE     PTSUNNY   70  63  79 W15       29.85R
CAHOKIA*       CLOUDY    69  61  75 W8        29.85R
SPARTA*        CLOUDY    71  63  75 W13       29.86R
$$

ILZ064>066-069>071-074>076-080>082-084>086-088>090-092>094-281700-
SOUTH-CENTRAL ILLINOIS

CITY           SKY/WX    TMP DP  RH WIND       PRES   REMARKS
CARBONDALE     CLOUDY    69  65  86 W13       29.85S
CAIRO*         PTSUNNY   68  64  85 SW13G21   29.87S
EFFINGHAM*     CLOUDY    71  65  80 SW12      29.81R
MARION         CLOUDY    68  68 100 SW17      29.86S
MT. VERNON       N/A     72  64  76 SW15G23   29.82F
CENTRALIA*     PTSUNNY   72  65  77 SW18      29.81S
SALEM*         CLOUDY    74  63  66 W17G23    29.81F
METROPOLIS*    PTSUNNY   71  64  79 W12G18    29.87S
$$

ILZ067-068-072-073-078-083-087-091-281700-
SOUTHEAST ILLINOIS

CITY           SKY/WX    TMP DP  RH WIND       PRES   REMARKS
LAWRENCEVILLE  CLOUDY    73  62  68 W20       29.80R
FLORA*         CLOUDY    74  63  68 SW17G23   29.80F
FAIRFIELD*     CLOUDY    69  63  80 SW12      29.81S
HARRISBURG*    CLOUDY    68  64  85 W18       29.85R
ROBINSON*      PTSUNNY   73  62  68 W17G24    29.80R
CARMI*         CLOUDY    70  63  78 W20       29.83R
$$

ABBREVIATIONS USED IN REMARKS
   TC - TEMPERATURE IN CELSIUS
  WCI - WIND CHILL INDEX
   HX - HEAT INDEX
  VSB - VISIBILITY
$$




USA.gov is the U.S. government's official web portal to all federal, state and local government web resources and services.